Location: El Gallo
(32.4380°N, 116.9347°W)
Time: 18:42:05
(UTC+00:00)

Cosmos 1980 Rocket - Pass Details

Date: 01 October 2022
Orbit: 830 x 849 km, 71.0° (Epoch: 02 December)

Event Time Altitude Azimuth Distance (km) Brightness Sun altitude
Rises 12:49:15 0° 331° (NNW) 3,374 5.1 -11.9°
Reaches altitude 10° 12:51:47 10° 325° (NW) 2,438 4.3 -11.4°
Maximum altitude 12:57:01 43° 255° (WSW) 1,150 2.5 -10.3°
Drops below altitude 10° 13:02:16 10° 185° (S) 2,432 4.5 -9.2°
Sets 13:04:48 0° 179° (S) 3,365 5.3 -8.7°
